,,,PA_Meas_PMT16A,,PR_Meas_QMR101_102,,RH_Meas_QMH101,,SR_Meas_QMS101,,TA_Meas_QMH101,,GenWind,,GenWind,
date,time,status,PA,status,PR,status,RH,status,SR,status,TA,status,DirAvg,status,SpdAvg,
2012-02-02, 00:00:05,VALID,1010.31,VALID,0,VALID,101.872,VALID,0.112112,VALID,22.2134,VALID,39,VALID,0.160938,
2012-02-02, 00:01:05,VALID,1010.32,VALID,0,VALID,102.017,VALID,0,VALID,22.2134,VALID,39,VALID,0.239844,
2012-02-02, 00:02:05,VALID,1010.28,VALID,0,VALID,102.261,VALID,0.112112,VALID,22.2329,VALID,39,VALID,0.096875,
2012-02-02, 00:03:05,VALID,1010.28,VALID,0,VALID,102.177,VALID,0,VALID,22.2134,VALID,39,VALID,0.287109,
2012-02-02, 00:04:05,VALID,1010.25,VALID,0,VALID,102.269,VALID,0,VALID,22.2134,VALID,39,VALID,0.108984,
2012-02-02, 00:05:05,VALID,1010.24,VALID,0,VALID,102.17,VALID,0,VALID,22.2134,VALID,39,VALID,0.15,
2012-02-02, 00:06:05,VALID,1010.24,VALID,0,VALID,102.292,VALID,0,VALID,22.2134,VALID,39,VALID,0,
2012-02-02, 00:07:05,VALID,1010.2,VALID,0,VALID,102.338,VALID,0,VALID,22.2134,VALID,39,VALID,0,
2012-02-02, 00:08:05,VALID,1010.2,VALID,0,VALID,102.261,VALID,0.112112,VALID,22.194,VALID,39,VALID,0,
2012-02-02, 00:09:05,VALID,1010.2,VALID,0,VALID,102.292,VALID,0,VALID,22.2134,VALID,39,VALID,0,
2012-02-02, 00:10:05,VALID,1010.18,VALID,0,VALID,102.177,VALID,0,VALID,22.194,VALID,39,VALID,0.121484,
2012-02-02, 00:11:05,VALID,1010.18,VALID,0,VALID,102.231,VALID,0,VALID,22.2134,VALID,39,VALID,0.00117188,
2012-02-02, 00:12:05,VALID,1010.17,VALID,0,VALID,102.566,VALID,0,VALID,22.2329,VALID,39,VALID,0.348047,
2012-02-02, 00:13:05,VALID,1010.17,VALID,0,VALID,102.551,VALID,0,VALID,22.2524,VALID,40,VALID,0.503906,
2012-02-02, 00:14:05,VALID,1010.15,VALID,0,VALID,102.101,VALID,0,VALID,22.2524,VALID,70,VALID,0.865234,
2012-02-02, 00:15:05,VALID,1010.12,VALID,0,VALID,101.674,VALID,0.112112,VALID,22.2702,VALID,70,VALID,0.753516,
2012-02-02, 00:16:05,VALID,1010.14,VALID,0,VALID,101.651,VALID,0,VALID,22.3303,VALID,70,VALID,0.422656,
2012-02-02, 00:17:05,VALID,1010.15,VALID,0,VALID,101.773,VALID,0,VALID,22.3286,VALID,70,VALID,0.500391,
2012-02-02, 00:18:05,VALID,1010.15,VALID,0,VALID,101.697,VALID,0,VALID,22.371,VALID,70,VALID,0.455078,
2012-02-02, 00:19:05,VALID,1010.14,VALID,0,VALID,101.606,VALID,0.112112,VALID,22.3693,VALID,77,VALID,0.777344,
2012-02-02, 00:20:05,VALID,1010.14,VALID,0,VALID,101.514,VALID,0,VALID,22.3887,VALID,72,VALID,0.960547,
2012-02-02, 00:21:05,VALID,1010.11,VALID,0,VALID,101.323,VALID,0,VALID,22.4082,VALID,69,VALID,0.891406,
2012-02-02, 00:22:05,VALID,1010.08,VALID,0,VALID,101.339,VALID,0,VALID,22.4489,VALID,61,VALID,1.07383,
2012-02-02, 00:23:05,VALID,1010.09,VALID,0,VALID,101.209,VALID,0.112112,VALID,22.4472,VALID,65,VALID,0.665234,
2012-02-02, 00:24:05,VALID,1010.05,VALID,0,VALID,101.377,VALID,0.112112,VALID,22.4472,VALID,65,VALID,0.799219,
2012-02-02, 00:25:05,VALID,1010.01,VALID,0,VALID,101.499,VALID,0,VALID,22.4472,VALID,50,VALID,0.650391,
2012-02-02, 00:26:05,VALID,1009.99,VALID,0,VALID,101.346,VALID,0.112112,VALID,22.4277,VALID,46,VALID,0.860156,
2012-02-02, 00:27:05,VALID,1010.01,VALID,0,VALID,101.323,VALID,0.112112,VALID,22.4277,VALID,50,VALID,0.310937,
2012-02-02, 00:28:05,VALID,1009.96,VALID,0,VALID,101.583,VALID,0.112112,VALID,22.4277,VALID,49,VALID,0.428125,
2012-02-02, 00:29:05,VALID,1009.96,VALID,0,VALID,101.575,VALID,0.112112,VALID,22.4277,VALID,47,VALID,0.517578,
2012-02-02, 00:30:05,VALID,1009.98,VALID,0,VALID,101.956,VALID,0.112112,VALID,22.4082,VALID,61,VALID,0.714844,
2012-02-02, 00:31:05,VALID,1009.99,VALID,0,VALID,102.109,VALID,0.112112,VALID,22.4082,VALID,66,VALID,0.719531,
2012-02-02, 00:32:05,VALID,1009.95,VALID,0,VALID,102.444,VALID,0.112112,VALID,22.387,VALID,78,VALID,0.589063,
2012-02-02, 00:33:05,VALID,1009.96,VALID,0,VALID,102.437,VALID,0,VALID,22.4082,VALID,72,VALID,0.731641,
2012-02-02, 00:34:05,VALID,1009.96,VALID,0,VALID,102.284,VALID,0.112112,VALID,22.4082,VALID,68,VALID,0.626953,
2012-02-02, 00:35:05,VALID,1009.98,VALID,0,VALID,102.315,VALID,0.112112,VALID,22.387,VALID,56,VALID,0.484375,
2012-02-02, 00:36:05,VALID,1009.97,VALID,0,VALID,102.46,VALID,0,VALID,22.4082,VALID,69,VALID,0.745703,
2012-02-02, 00:37:05,VALID,1009.95,VALID,0,VALID,102.627,VALID,0.112112,VALID,22.3887,VALID,66,VALID,0.128516,
2012-02-02, 00:38:05,VALID,1009.95,VALID,0,VALID,102.582,VALID,0,VALID,22.3693,VALID,65,VALID,0.506641,
2012-02-02, 00:39:05,VALID,1009.97,VALID,0,VALID,102.65,VALID,0,VALID,22.3498,VALID,61,VALID,0.41875,
2012-02-02, 00:40:05,VALID,1009.97,VALID,0,VALID,102.78,VALID,0.112112,VALID,22.3498,VALID,61,VALID,0.261719,
2012-02-02, 00:41:05,VALID,1009.95,VALID,0,VALID,102.971,VALID,0,VALID,22.3303,VALID,84,VALID,0.404297,
2012-02-02, 00:42:05,VALID,1009.98,VALID,0,VALID,103.085,VALID,0.112112,VALID,22.3498,VALID,81,VALID,0.239844,
2012-02-02, 00:43:05,VALID,1009.93,VALID,0,VALID,103.093,VALID,0,VALID,22.3498,VALID,77,VALID,0.349609,
2012-02-02, 00:44:05,VALID,1009.96,VALID,0,VALID,103.039,VALID,0.112112,VALID,22.3498,VALID,78,VALID,0.204297,
2012-02-02, 00:45:05,VALID,1009.94,VALID,0,VALID,103.23,VALID,0.112112,VALID,22.3286,VALID,78,VALID,0.567187,
2012-02-02, 00:46:05,VALID,1009.92,VALID,0,VALID,103.298,VALID,0.112112,VALID,22.3481,VALID,78,VALID,0.367969,
2012-02-02, 00:47:05,VALID,1009.94,VALID,0,VALID,103.359,VALID,0,VALID,22.3693,VALID,77,VALID,0.412891,
2012-02-02, 00:48:05,VALID,1009.93,VALID,0,VALID,103.42,VALID,0,VALID,22.3887,VALID,77,VALID,0.195313,
2012-02-02, 00:49:05,VALID,1009.9,VALID,0,VALID,103.329,VALID,0,VALID,22.3887,VALID,73,VALID,0.357422,
2012-02-02, 00:50:05,VALID,1009.9,VALID,0,VALID,103.291,VALID,0,VALID,22.4082,VALID,61,VALID,0.529297,
2012-02-02, 00:51:05,VALID,1009.91,VALID,0,VALID,103.306,VALID,0,VALID,22.4294,VALID,50,VALID,0.580469,
2012-02-02, 00:52:05,VALID,1009.88,VALID,0,VALID,103.359,VALID,0,VALID,22.4277,VALID,51,VALID,0.290625,
2012-02-02, 00:53:05,VALID,1009.87,VALID,0,VALID,103.352,VALID,0,VALID,22.4667,VALID,62,VALID,0.834375,
2012-02-02, 00:54:05,VALID,1009.9,VALID,0,VALID,103.26,VALID,0,VALID,22.5056,VALID,60,VALID,0.330859,
2012-02-02, 00:55:05,VALID,1009.88,VALID,0,VALID,103.123,VALID,0.112112,VALID,22.5251,VALID,55,VALID,0.759375,
2012-02-02, 00:56:05,VALID,1009.87,VALID,0,VALID,103.039,VALID,0.112112,VALID,22.564,VALID,50,VALID,0.617969,
2012-02-02, 00:57:05,VALID,1009.84,VALID,0,VALID,102.902,VALID,0,VALID,22.5835,VALID,50,VALID,0.594922,
2012-02-02, 00:58:05,VALID,1009.87,VALID,0,VALID,102.795,VALID,0,VALID,22.603,VALID,50,VALID,0.442187,
2012-02-02, 00:59:05,VALID,1009.85,VALID,0,VALID,102.673,VALID,0,VALID,22.603,VALID,50,VALID,0.253906,
2012-02-02, 01:00:05,VALID,1009.83,VALID,0,VALID,102.635,VALID,0.112112,VALID,22.6013,VALID,50,VALID,0.2,
2012-02-02, 01:01:05,VALID,1009.82,VALID,0,VALID,102.788,VALID,0,VALID,22.642,VALID,50,VALID,0.334375,
2012-02-02, 01:02:05,VALID,1009.83,VALID,0,VALID,102.932,VALID,0.112112,VALID,22.6614,VALID,50,VALID,0.235547,
2012-02-02, 01:03:05,VALID,1009.83,VALID,0,VALID,102.78,VALID,0.112112,VALID,22.6614,VALID,50,VALID,0.437109,
2012-02-02, 01:04:05,VALID,1009.83,VALID,0,VALID,102.749,VALID,0.112112,VALID,22.6809,VALID,50,VALID,0.408203,
2012-02-02, 01:05:05,VALID,1009.82,VALID,0,VALID,102.757,VALID,0.112112,VALID,22.6809,VALID,50,VALID,0.304688,
2012-02-02, 01:06:05,VALID,1009.84,VALID,0,VALID,102.757,VALID,0,VALID,22.6809,VALID,50,VALID,0.0539063,
2012-02-02, 01:07:05,VALID,1009.83,VALID,0,VALID,102.711,VALID,0.112112,VALID,22.7004,VALID,64,VALID,0.712891,
2012-02-02, 01:08:05,VALID,1009.84,VALID,0,VALID,102.62,VALID,0.112112,VALID,22.7004,VALID,85,VALID,1.06211,
2012-02-02, 01:09:05,VALID,1009.84,VALID,0,VALID,102.551,VALID,0,VALID,22.7182,VALID,86,VALID,0.7375,
2012-02-02, 01:10:05,VALID,1009.85,VALID,0,VALID,102.246,VALID,0,VALID,22.7199,VALID,93,VALID,0.747656,
2012-02-02, 01:11:05,VALID,1009.85,VALID,0,VALID,102.216,VALID,0,VALID,22.7394,VALID,93,VALID,0.627734,
2012-02-02, 01:12:05,VALID,1009.81,VALID,0,VALID,102.185,VALID,0,VALID,22.7376,VALID,93,VALID,0.371875,
2012-02-02, 01:13:05,VALID,1009.82,VALID,0,VALID,101.979,VALID,0,VALID,22.7783,VALID,92,VALID,0.633203,
2012-02-02, 01:14:05,VALID,1009.81,VALID,0,VALID,101.789,VALID,0.112112,VALID,22.7978,VALID,86,VALID,0.625,
2012-02-02, 01:15:05,VALID,1009.79,VALID,0,VALID,101.278,VALID,0.112112,VALID,22.8173,VALID,67,VALID,1.12852,
2012-02-02, 01:16:05,VALID,1009.76,VALID,0,VALID,100.927,VALID,0,VALID,22.835,VALID,70,VALID,1.03242,
2012-02-02, 01:17:05,VALID,1009.76,VALID,0,VALID,100.568,VALID,0,VALID,22.8952,VALID,70,VALID,1.25586,
2012-02-02, 01:18:05,VALID,1009.76,VALID,0,VALID,99.7525,VALID,0.112112,VALID,22.8935,VALID,83,VALID,1.13047,
2012-02-02, 01:19:05,VALID,1009.78,VALID,0,VALID,99.3864,VALID,0.112112,VALID,22.9324,VALID,69,VALID,1.41328,
2012-02-02, 01:20:05,VALID,1009.75,VALID,0,VALID,98.9442,VALID,0,VALID,22.9324,VALID,81,VALID,0.990234,
2012-02-02, 01:21:05,VALID,1009.77,VALID,0,VALID,98.1511,VALID,0,VALID,22.9324,VALID,65,VALID,1.43945,
2012-02-02, 01:22:05,VALID,1009.73,VALID,0,VALID,97.3427,VALID,0,VALID,22.9342,VALID,80,VALID,1.32266,
2012-02-02, 01:23:05,VALID,1009.71,VALID,0,VALID,97.5334,VALID,0,VALID,22.9147,VALID,69,VALID,1.26055,
2012-02-02, 01:24:05,VALID,1009.69,VALID,0,VALID,97.1216,VALID,0,VALID,22.9164,VALID,67,VALID,1.26641,
2012-02-02, 01:25:05,VALID,1009.68,VALID,0,VALID,97.602,VALID,0,VALID,22.9164,VALID,64,VALID,0.997266,
2012-02-02, 01:26:05,VALID,1009.67,VALID,0,VALID,97.6478,VALID,0,VALID,22.8952,VALID,64,VALID,0.939062,
2012-02-02, 01:27:05,VALID,1009.64,VALID,0,VALID,98.5095,VALID,0,VALID,22.9164,VALID,60,VALID,0.842969,
2012-02-02, 01:28:05,VALID,1009.63,VALID,0,VALID,98.8755,VALID,0,VALID,22.8969,VALID,55,VALID,0.774609,
2012-02-02, 01:29:05,VALID,1009.61,VALID,0,VALID,98.8679,VALID,0,VALID,22.8562,VALID,53,VALID,0.881641,
2012-02-02, 01:30:05,VALID,1009.6,VALID,0,VALID,99.3712,VALID,0,VALID,22.8562,VALID,68,VALID,0.851563,
2012-02-02, 01:31:05,VALID,1009.59,VALID,0,VALID,100.05,VALID,0,VALID,22.858,VALID,68,VALID,0.8125,
2012-02-02, 01:32:05,VALID,1009.58,VALID,0,VALID,99.8821,VALID,0,VALID,22.8368,VALID,66,VALID,0.655469,
2012-02-02, 01:33:05,VALID,1009.57,VALID,0,VALID,99.6533,VALID,0,VALID,22.8368,VALID,48,VALID,0.824609,
2012-02-02, 01:34:05,VALID,1009.55,VALID,0,VALID,99.7906,VALID,0,VALID,22.8173,VALID,56,VALID,0.714063,
2012-02-02, 01:35:05,VALID,1009.55,VALID,0,VALID,99.7601,VALID,0,VALID,22.8368,VALID,66,VALID,0.721094,
2012-02-02, 01:36:04,VALID,1009.52,VALID,0,VALID,99.5008,VALID,0,VALID,22.8385,VALID,87,VALID,0.631641,
2012-02-02, 01:37:04,VALID,1009.51,VALID,0,VALID,99.8211,VALID,0,VALID,22.858,VALID,57,VALID,0.647656,
2012-02-02, 01:38:04,VALID,1009.51,VALID,0,VALID,99.9431,VALID,0,VALID,22.8562,VALID,59,VALID,0.741016,
2012-02-02, 01:39:04,VALID,1009.52,VALID,0,VALID,99.783,VALID,0.112112,VALID,22.8368,VALID,63,VALID,0.905859,
2012-02-02, 01:40:04,VALID,1009.49,VALID,0,VALID,99.6686,VALID,0,VALID,22.8562,VALID,64,VALID,1.06719,
2012-02-02, 01:41:04,VALID,1009.48,VALID,0,VALID,99.2339,VALID,0,VALID,22.8757,VALID,72,VALID,0.976953,
2012-02-02, 01:42:04,VALID,1009.48,VALID,0,VALID,99.5923,VALID,0,VALID,22.8757,VALID,69,VALID,0.723437,
2012-02-02, 01:43:04,VALID,1009.46,VALID,0,VALID,98.9518,VALID,0,VALID,22.8545,VALID,53,VALID,0.80625,
2012-02-02, 01:44:04,VALID,1009.45,VALID,0,VALID,98.8298,VALID,0,VALID,22.8952,VALID,71,VALID,0.839453,
2012-02-02, 01:45:04,VALID,1009.44,VALID,0,VALID,99.3102,VALID,0,VALID,22.8757,VALID,74,VALID,0.727344,
2012-02-02, 01:46:04,VALID,1009.44,VALID,0,VALID,98.6696,VALID,0,VALID,22.8952,VALID,77,VALID,0.685547,
2012-02-02, 01:47:04,VALID,1009.45,VALID,0,VALID,99.0357,VALID,0.112112,VALID,22.9147,VALID,77,VALID,0.335938,
2012-02-02, 01:48:04,VALID,1009.41,VALID,0,VALID,99.3254,VALID,0,VALID,22.8952,VALID,77,VALID,0.343359,
2012-02-02, 01:49:04,VALID,1009.43,VALID,0,VALID,99.7144,VALID,0,VALID,22.9147,VALID,73,VALID,0.621875,
2012-02-02, 01:50:04,VALID,1009.45,VALID,0,VALID,99.1348,VALID,0,VALID,22.9147,VALID,78,VALID,0.477734,
2012-02-02, 01:51:04,VALID,1009.45,VALID,0,VALID,99.1882,VALID,0,VALID,22.8952,VALID,78,VALID,0.162109,
2012-02-02, 01:52:04,VALID,1009.46,VALID,0,VALID,99.6457,VALID,0,VALID,22.9147,VALID,78,VALID,0.0371094,
2012-02-02, 01:53:04,VALID,1009.48,VALID,0,VALID,100.294,VALID,0,VALID,22.9342,VALID,103,VALID,0.585938,
2012-02-02, 01:54:04,VALID,1009.45,VALID,0,VALID,100.073,VALID,0,VALID,22.874,VALID,110,VALID,0.684375,
2012-02-02, 01:55:04,VALID,1009.47,VALID,0,VALID,100.18,VALID,0,VALID,22.8952,VALID,110,VALID,0.600781,
2012-02-02, 01:56:04,VALID,1009.47,VALID,0,VALID,100.385,VALID,0,VALID,22.874,VALID,110,VALID,0.363672,
2012-02-02, 01:57:04,VALID,1009.45,VALID,0,VALID,100.858,VALID,0,VALID,22.874,VALID,110,VALID,0.306641,
2012-02-02, 01:58:04,VALID,1009.46,VALID,0,VALID,101.018,VALID,0.112112,VALID,22.8757,VALID,110,VALID,0.0972656,
2012-02-02, 01:59:04,VALID,1009.45,VALID,0,VALID,101.079,VALID,0,VALID,22.8757,VALID,110,VALID,0.295703,
2012-02-02, 02:00:04,VALID,1009.46,VALID,0,VALID,100.889,VALID,0,VALID,22.8562,VALID,110,VALID,0.324609,
2012-02-02, 02:01:04,VALID,1009.45,VALID,0,VALID,100.706,VALID,0,VALID,22.8562,VALID,110,VALID,0.427734,
2012-02-02, 02:02:04,VALID,1009.47,VALID,0,VALID,100.698,VALID,0,VALID,22.8757,VALID,114,VALID,0.526172,
2012-02-02, 02:03:04,VALID,1009.47,VALID,0,VALID,100.828,VALID,0,VALID,22.8757,VALID,127,VALID,0.3,
2012-02-02, 02:04:04,VALID,1009.49,VALID,0,VALID,101.011,VALID,0,VALID,22.8562,VALID,127,VALID,0.371094,
2012-02-02, 02:05:04,VALID,1009.47,VALID,0,VALID,100.797,VALID,0,VALID,22.8562,VALID,117,VALID,0.530469,
2012-02-02, 02:06:04,VALID,1009.46,VALID,0,VALID,101.117,VALID,0,VALID,22.8952,VALID,117,VALID,0.30625,
2012-02-02, 02:07:04,VALID,1009.46,VALID,0,VALID,100.889,VALID,0,VALID,22.8757,VALID,127,VALID,0.603125,
2012-02-02, 02:08:04,VALID,1009.46,VALID,0,VALID,101.011,VALID,0,VALID,22.8562,VALID,128,VALID,0.298047,
2012-02-02, 02:09:04,VALID,1009.44,VALID,0,VALID,100.614,VALID,0,VALID,22.8562,VALID,128,VALID,0.446094,
2012-02-02, 02:10:04,VALID,1009.44,VALID,0,VALID,100.675,VALID,0,VALID,22.8368,VALID,128,VALID,0.586328,
2012-02-02, 02:11:04,VALID,1009.44,VALID,0,VALID,100.812,VALID,0,VALID,22.8562,VALID,128,VALID,0.264844,
2012-02-02, 02:12:04,VALID,1009.42,VALID,0,VALID,100.797,VALID,0,VALID,22.858,VALID,128,VALID,0.239844,
2012-02-02, 02:13:04,VALID,1009.41,VALID,0,VALID,100.721,VALID,0,VALID,22.858,VALID,128,VALID,0.153125,
2012-02-02, 02:14:04,VALID,1009.44,VALID,0,VALID,100.965,VALID,0,VALID,22.8368,VALID,128,VALID,0.0078125,
2012-02-02, 02:15:04,VALID,1009.46,VALID,0,VALID,101.102,VALID,0,VALID,22.8368,VALID,128,VALID,0,
2012-02-02, 02:16:04,VALID,1009.45,VALID,0,VALID,101.476,VALID,0,VALID,22.8368,VALID,128,VALID,0.00273437,
2012-02-02, 02:17:04,VALID,1009.45,VALID,0,VALID,101.72,VALID,0,VALID,22.8368,VALID,128,VALID,0,
2012-02-02, 02:18:04,VALID,1009.44,VALID,0,VALID,101.705,VALID,0,VALID,22.8368,VALID,128,VALID,0,
2012-02-02, 02:19:04,VALID,1009.46,VALID,0,VALID,101.865,VALID,0,VALID,22.8368,VALID,128,VALID,0,
2012-02-02, 02:20:04,VALID,1009.44,VALID,0,VALID,102.109,VALID,0,VALID,22.8368,VALID,128,VALID,0,
2012-02-02, 02:21:04,VALID,1009.42,VALID,0,VALID,101.979,VALID,0,VALID,22.8173,VALID,128,VALID,0,
2012-02-02, 02:22:04,VALID,1009.43,VALID,0,VALID,101.781,VALID,0,VALID,22.8173,VALID,131,VALID,0.591016,
2012-02-02, 02:23:04,VALID,1009.44,VALID,0,VALID,101.796,VALID,0,VALID,22.8385,VALID,133,VALID,0.382813,
2012-02-02, 02:24:04,VALID,1009.46,VALID,0,VALID,101.88,VALID,0,VALID,22.8368,VALID,133,VALID,0.389062,
2012-02-02, 02:25:04,VALID,1009.47,VALID,0,VALID,101.842,VALID,0,VALID,22.8173,VALID,133,VALID,0.257422,
2012-02-02, 02:26:04,VALID,1009.47,VALID,0,VALID,101.956,VALID,0,VALID,22.8173,VALID,133,VALID,0.298438,
2012-02-02, 02:27:04,VALID,1009.49,VALID,0,VALID,102.002,VALID,0,VALID,22.8173,VALID,133,VALID,0.341016,
2012-02-02, 02:28:04,VALID,1009.49,VALID,0,VALID,102.162,VALID,0,VALID,22.7978,VALID,133,VALID,0.355078,
2012-02-02, 02:29:04,VALID,1009.45,VALID,0,VALID,101.933,VALID,0,VALID,22.7978,VALID,128,VALID,0.534375,
2012-02-02, 02:30:04,VALID,1009.45,VALID,0,VALID,101.728,VALID,0,VALID,22.7978,VALID,127,VALID,0.259766,
2012-02-02, 02:31:04,VALID,1009.42,VALID,0,VALID,101.842,VALID,0.112112,VALID,22.7978,VALID,127,VALID,0.053125,
2012-02-02, 02:32:04,VALID,1009.42,VALID,0,VALID,102.17,VALID,0,VALID,22.8173,VALID,127,VALID,0.00117188,
2012-02-02, 02:33:04,VALID,1009.44,VALID,0,VALID,102.025,VALID,0,VALID,22.7978,VALID,127,VALID,0.0191406,
2012-02-02, 02:34:04,VALID,1009.39,VALID,0,VALID,101.987,VALID,0,VALID,22.7783,VALID,127,VALID,0,
2012-02-02, 02:35:04,VALID,1009.4,VALID,0,VALID,102.048,VALID,0,VALID,22.7783,VALID,127,VALID,0,
2012-02-02, 02:36:04,VALID,1009.42,VALID,0,VALID,101.979,VALID,0,VALID,22.7783,VALID,127,VALID,0,
2012-02-02, 02:37:04,VALID,1009.41,VALID,0,VALID,102.048,VALID,0,VALID,22.7783,VALID,127,VALID,0,
2012-02-02, 02:38:04,VALID,1009.43,VALID,0,VALID,102.376,VALID,0,VALID,22.819,VALID,127,VALID,0,
2012-02-02, 02:39:04,VALID,1009.44,VALID,0,VALID,102.528,VALID,0,VALID,22.7978,VALID,127,VALID,0,
2012-02-02, 02:40:04,VALID,1009.44,VALID,0,VALID,102.765,VALID,0,VALID,22.7978,VALID,127,VALID,0.0191406,
2012-02-02, 02:41:04,VALID,1009.43,VALID,0,VALID,103.1,VALID,0,VALID,22.7978,VALID,127,VALID,0.310156,
2012-02-02, 02:42:04,VALID,1009.43,VALID,0,VALID,103.237,VALID,0,VALID,22.7588,VALID,95,VALID,0.494922,
2012-02-02, 02:43:04,VALID,1009.42,VALID,0,VALID,103.306,VALID,0,VALID,22.7411,VALID,54,VALID,0.420312,
2012-02-02, 02:44:04,VALID,1009.38,VALID,0,VALID,103.222,VALID,0,VALID,22.6614,VALID,54,VALID,0.380078,
2012-02-02, 02:45:04,VALID,1009.37,VALID,0,VALID,103.276,VALID,0,VALID,22.642,VALID,54,VALID,0.450391,
2012-02-02, 02:46:04,VALID,1009.34,VALID,0,VALID,103.428,VALID,0,VALID,22.603,VALID,54,VALID,0.323047,
2012-02-02, 02:47:04,VALID,1009.35,VALID,0,VALID,103.367,VALID,0,VALID,22.564,VALID,54,VALID,0.303125,
2012-02-02, 02:48:04,VALID,1009.34,VALID,0,VALID,103.26,VALID,0,VALID,22.564,VALID,54,VALID,0.228516,
2012-02-02, 02:49:04,VALID,1009.31,VALID,0,VALID,103.321,VALID,0,VALID,22.564,VALID,54,VALID,0.213672,
2012-02-02, 02:50:04,VALID,1009.32,VALID,0,VALID,103.298,VALID,0,VALID,22.5446,VALID,54,VALID,0.210156,
2012-02-02, 02:51:04,VALID,1009.29,VALID,0,VALID,103.466,VALID,0,VALID,22.5446,VALID,54,VALID,0,
2012-02-02, 02:52:04,VALID,1009.27,VALID,0,VALID,103.718,VALID,0,VALID,22.5446,VALID,54,VALID,0.432031,
2012-02-02, 02:53:04,VALID,1009.26,VALID,0,VALID,103.726,VALID,0,VALID,22.5251,VALID,54,VALID,0.586328,
2012-02-02, 02:54:04,VALID,1009.23,VALID,0,VALID,103.771,VALID,0,VALID,22.5251,VALID,54,VALID,0.535156,
2012-02-02, 02:55:04,VALID,1009.2,VALID,0,VALID,103.848,VALID,0,VALID,22.5251,VALID,54,VALID,0.454297,
2012-02-02, 02:56:04,VALID,1009.17,VALID,0,VALID,103.909,VALID,0,VALID,22.5056,VALID,54,VALID,0.358594,
2012-02-02, 02:57:04,VALID,1009.17,VALID,0,VALID,103.901,VALID,0,VALID,22.5268,VALID,54,VALID,0.354297,
2012-02-02, 02:58:04,VALID,1009.14,VALID,0,VALID,104,VALID,0,VALID,22.5056,VALID,54,VALID,0.205859,
2012-02-02, 02:59:04,VALID,1009.15,VALID,0,VALID,104,VALID,0,VALID,22.5056,VALID,54,VALID,0.0183594,
2012-02-02, 03:00:04,VALID,1009.15,VALID,0,VALID,104,VALID,0,VALID,22.4861,VALID,54,VALID,0.187891,
2012-02-02, 03:01:04,VALID,1009.14,VALID,0,VALID,104,VALID,0,VALID,22.5073,VALID,54,VALID,0.196484,
2012-02-02, 03:02:04,VALID,1009.14,VALID,0,VALID,104,VALID,0,VALID,22.4667,VALID,54,VALID,0.119141,
2012-02-02, 03:03:04,VALID,1009.1,VALID,0,VALID,104,VALID,0,VALID,22.4667,VALID,54,VALID,0.11875,
2012-02-02, 03:04:04,VALID,1009.1,VALID,0,VALID,104,VALID,0,VALID,22.4878,VALID,54,VALID,0.112109,
2012-02-02, 03:05:04,VALID,1009.1,VALID,0,VALID,104,VALID,0,VALID,22.4472,VALID,54,VALID,0.0382813,
2012-02-02, 03:06:04,VALID,1009.09,VALID,0,VALID,104,VALID,0,VALID,22.4684,VALID,54,VALID,0.284375,
2012-02-02, 03:07:04,VALID,1009.09,VALID,0,VALID,104,VALID,0,VALID,22.4684,VALID,54,VALID,0.125,
2012-02-02, 03:08:04,VALID,1009.09,VALID,0,VALID,104,VALID,0,VALID,22.4472,VALID,54,VALID,0.161719,
2012-02-02, 03:09:04,VALID,1009.1,VALID,0,VALID,104,VALID,0,VALID,22.4472,VALID,54,VALID,0.132813,
2012-02-02, 03:10:04,VALID,1009.09,VALID,0,VALID,104,VALID,0,VALID,22.4277,VALID,54,VALID,0.125781,
2012-02-02, 03:11:04,VALID,1009.1,VALID,0,VALID,104,VALID,0,VALID,22.4082,VALID,54,VALID,0.196094,
2012-02-02, 03:12:04,VALID,1009.06,VALID,0,VALID,104,VALID,0,VALID,22.4082,VALID,54,VALID,0,
2012-02-02, 03:13:04,VALID,1009.06,VALID,0,VALID,104,VALID,0,VALID,22.4082,VALID,54,VALID,0.447656,
2012-02-02, 03:14:04,VALID,1009.05,VALID,0,VALID,104,VALID,0,VALID,22.4277,VALID,54,VALID,0.419141,
2012-02-02, 03:15:04,VALID,1009.02,VALID,0,VALID,104,VALID,0,VALID,22.4277,VALID,54,VALID,0.282422,
2012-02-02, 03:16:04,VALID,1009.04,VALID,0,VALID,104,VALID,0,VALID,22.4472,VALID,54,VALID,0.136328,
2012-02-02, 03:17:04,VALID,1009.01,VALID,0,VALID,104,VALID,0,VALID,22.4277,VALID,54,VALID,0.169531,
2012-02-02, 03:18:04,VALID,1009.03,VALID,0,VALID,104,VALID,0,VALID,22.4277,VALID,54,VALID,0.0234375,
2012-02-02, 03:19:04,VALID,1008.99,VALID,0,VALID,104,VALID,0,VALID,22.4277,VALID,54,VALID,0.151172,
2012-02-02, 03:20:04,VALID,1008.98,VALID,0,VALID,104,VALID,0,VALID,22.4472,VALID,54,VALID,0,
2012-02-02, 03:21:04,VALID,1008.99,VALID,0,VALID,104,VALID,0,VALID,22.4472,VALID,54,VALID,0.0140625,
2012-02-02, 03:22:04,VALID,1008.97,VALID,0,VALID,104,VALID,0,VALID,22.4472,VALID,54,VALID,0.221484,
2012-02-02, 03:23:04,VALID,1008.97,VALID,0,VALID,104,VALID,0,VALID,22.4277,VALID,54,VALID,0.185937,
2012-02-02, 03:24:04,VALID,1008.99,VALID,0,VALID,104,VALID,0,VALID,22.4472,VALID,54,VALID,0.166406,
2012-02-02, 03:25:04,VALID,1008.98,VALID,0,VALID,104,VALID,0,VALID,22.4277,VALID,54,VALID,0.159766,
2012-02-02, 03:26:04,VALID,1009,VALID,0,VALID,104,VALID,0,VALID,22.4082,VALID,54,VALID,0.30625,
2012-02-02, 03:27:04,VALID,1009.01,VALID,0,VALID,104,VALID,0,VALID,22.4082,VALID,54,VALID,0.0597656,
2012-02-02, 03:28:04,VALID,1009.01,VALID,0,VALID,104,VALID,0,VALID,22.4489,VALID,54,VALID,0.000390625,
2012-02-02, 03:29:04,VALID,1009.02,VALID,0,VALID,104,VALID,0,VALID,22.4082,VALID,54,VALID,0,
2012-02-02, 03:30:04,VALID,1008.99,VALID,0,VALID,104,VALID,0,VALID,22.4082,VALID,54,VALID,0,
2012-02-02, 03:31:04,VALID,1009.01,VALID,0,VALID,104,VALID,0,VALID,22.4082,VALID,54,VALID,0,
2012-02-02, 03:32:04,VALID,1009.01,VALID,0,VALID,104,VALID,0,VALID,22.4099,VALID,54,VALID,0,
2012-02-02, 03:33:04,VALID,1009.01,VALID,0,VALID,104,VALID,0,VALID,22.3887,VALID,54,VALID,0,
2012-02-02, 03:34:04,VALID,1009.02,VALID,0,VALID,104,VALID,0,VALID,22.3887,VALID,54,VALID,0,
2012-02-02, 03:35:04,VALID,1009.02,VALID,0,VALID,104,VALID,0,VALID,22.3693,VALID,54,VALID,0,
2012-02-02, 03:36:04,VALID,1009.02,VALID,0,VALID,104,VALID,0,VALID,22.3887,VALID,54,VALID,0,
2012-02-02, 03:37:04,VALID,1009.03,VALID,0,VALID,104,VALID,0,VALID,22.3904,VALID,54,VALID,0,
2012-02-02, 03:38:04,VALID,1009.05,VALID,0,VALID,104,VALID,0,VALID,22.3693,VALID,54,VALID,0,
2012-02-02, 03:39:04,VALID,1009.04,VALID,0,VALID,104,VALID,0,VALID,22.3693,VALID,54,VALID,0,
2012-02-02, 03:40:04,VALID,1009.06,VALID,0,VALID,104,VALID,0,VALID,22.3498,VALID,54,VALID,0,
2012-02-02, 03:41:04,VALID,1009.06,VALID,0,VALID,104,VALID,0,VALID,22.3498,VALID,54,VALID,0,
2012-02-02, 03:42:04,VALID,1009.05,VALID,0,VALID,104,VALID,0,VALID,22.3515,VALID,54,VALID,0,
2012-02-02, 03:43:04,VALID,1009.06,VALID,0,VALID,104,VALID,0,VALID,22.3303,VALID,54,VALID,0,
2012-02-02, 03:44:04,VALID,1009.06,VALID,0,VALID,104,VALID,0,VALID,22.3108,VALID,54,VALID,0,
2012-02-02, 03:45:04,VALID,1009.05,VALID,0,VALID,104,VALID,0,VALID,22.3303,VALID,54,VALID,0.144141,
2012-02-02, 03:46:04,VALID,1009.05,VALID,0,VALID,104,VALID,0,VALID,22.3515,VALID,54,VALID,0.157031,
2012-02-02, 03:47:04,VALID,1009.02,VALID,0,VALID,104,VALID,0,VALID,22.3108,VALID,54,VALID,0.169531,